New York Mills, NY

8:14 AM EDT on October 20, 2014 (GMT -0400)
Harts Hill | Change Station
CLOSE
Current Station
Personal Weather Station
Location: Whitesboro, NY
Elevation: 682 ft
Nearby Weather Stations

Elev 682 ft 43.11 °N, 75.32 °W | Updated 1 minute ago

Overcast
Overcast
35.2 °F
Feels Like 35 °F
N
0.0
Wind Variable Wind from East
Gusts 1.0 mph

Today
High -- | Low -- °F
--% Chance of Precip.
Yesterday
High -- | Low -- °F
Precip. -- in
7:20 AM 6:10 PM
Waning Crescent, 11% visible
Pressure 30.03 in
Visibility 10.0 miles
Clouds Few 3800 ft
Scattered Clouds 11000 ft
Windchill 35 °F
Dew Point 33 °F
Humidity 92%
Rainfall 0.00 in
Snow Depth Not available.
UV 0 out of 12
Pollen .30 out of 12
Ozone Good
PM2.5 Good
Flu Activity Sporadic
METAR KRME 201153Z 14003KT 10SM FEW038 SCT110 02/01 A3002 RMK AO2 SLP167 T00220011 10022 20000 55004

More Conditions Fewer Conditions

Pressure 30.03 in
Visibility 10.0 miles
Clouds Few 3800 ft
Scattered Clouds 11000 ft
Windchill 35 °F
Dew Point 33 °F
Humidity 92%
Rainfall 0.00 in
Snow Depth Not available.
UV 0 out of 12
Pollen .30 out of 12
Ozone Good
PM2.5 Good
Flu Activity Sporadic
METAR KRME 201153Z 14003KT 10SM FEW038 SCT110 02/01 A3002 RMK AO2 SLP167 T00220011 10022 20000 55004

More Conditions Fewer Conditions

10-Day Weather Forecast

Almanac

Astronomy

Oct. 20, 2014 Rise Set
Actual Time 7:20 AM EDT 6:10 PM EDT
Civil Twilight 6:51 AM EDT 6:39 PM EDT
Nautical Twilight 6:18 AM EDT 7:12 PM EDT
Astronomical Twilight 5:45 AM EDT 7:45 PM EDT
Moon 4:01 AM EDT 4:36 PM EDT
Length of Visible Light 11h 47m
Length of Day
10h 49m
Waning Crescent, 11% of the Moon is Illuminated
Today
Waning Crescent
Oct 23
New
Oct 30
First Quarter
Nov 6
Full
Nov 14
Last Quarter

Today's Extremes

State Highs State Lows

Community

WunderPhotos

Upload Photos

1,763,349 photos uploaded!

Nearby

Air Quality

  Air Quality AQ Index Pollutant
Yesterday Good
OZONE
Yesterday Good
PM2.5
Current Good
OZONE
Current Good
PM2.5
Monday Good
PM2.5

Snow Depth

Station Depth Elevation
No new snow has been reported.

Earthquake Activity

City Distance Mag. Time & Date
No recent earthquake activity has been reported nearby.
Minimum magnitude displayed is 2.5.

Coastal Water Temperatures

Place Temperature
No Stations Reporting

Nearby Weather Stations